Regional Weather Roundup
Issued by NWS

Home | Current Version | Previous Version | Graphics & Text | Print | Product List | Glossary On
Versions: 1 2 3 4 5 6 7 8 9 10 11 12 13 14 15 16 17 18 19 20 21 22 23 24 25 26 27 28 29 30 31 32 33 34 35 36 37 38 39 40 41 42 43 44 45 46 47 48 49 50
000
ASUS43 KLMK 300310
RWRKY
KENTUCKY REGIONAL WEATHER ROUNDUP
NATIONAL WEATHER SERVICE LOUISVILLE KY
1100 PM EDT TUE JUL 29 2014

NOTE "FAIR" INDICATES FEW OR NO CLOUDS BELOW 12,000 FEET
WITH NO SIGNIFICANT WEATHER AND/OR OBSTRUCTIONS TO VISIBILITY.

KYZ001>023-026-027-061>063-070>075-300400-
WESTERN AND SOUTH CENTRAL KENTUCKY

CITY           SKY/WX    TMP DP  RH WIND       PRES   REMARKS
PADUCAH        CLEAR     63  58  83 CALM      30.08R
HENDERSON      CLEAR     61  55  82 SW3       30.07S
OWENSBORO      CLEAR     66  58  75 CALM      30.08S
HOPKINSVILLE   CLEAR     67  54  62 N3        30.09R
BOWLING GREEN  CLEAR     65  55  70 CALM      30.09R
GLASGOW        PTCLDY    63  58  83 CALM      30.10R
$$

KYZ024-025-028>034-038-045-046-053-300400-
NORTH CENTRAL KENTUCKY

CITY           SKY/WX    TMP DP  RH WIND       PRES   REMARKS
LOUISVILLE/SDF PTCLDY    70  58  65 W5        30.07R
LOUISVILLE/LOU CLEAR     68  57  68 CALM      30.08R
FORT KNOX      CLEAR     62  60  94 CALM      30.08R
$$

KYZ035>037-039>044-047>052-055>060-089>105-300400-
NORTHEAST KENTUCKY

CITY           SKY/WX    TMP DP  RH WIND       PRES   REMARKS
LEXINGTON      CLEAR     62  55  77 CALM      30.09S
COVINGTON      PTCLDY    65  56  72 SW6       30.06S
FRANKFORT      CLEAR     60  56  86 CALM      30.08R
$$

KYZ054-064>069-076>088-106>120-300400-
SOUTHEAST KENTUCKY

CITY           SKY/WX    TMP DP  RH WIND       PRES   REMARKS
JACKSON        CLEAR     61  53  75 CALM      30.10S
LONDON         CLEAR     60  54  80 CALM      30.11R
SOMERSET       CLEAR     59  57  94 CALM      30.11S
MIDDLESBORO    CLEAR     59  55  87 CALM      30.12R
MONTICELLO     CLEAR     57  56  97 CALM      30.12R
$$




USA.gov is the U.S. government's official web portal to all federal, state and local government web resources and services.